N8AAU Weather Reports


time (UTC)temp
F
wind
direction
speed
knots
gust
knots
rain 1hr
in
rain 24hr
in
rain mn
in
humidity
%
barometer
mb
20260506122004 45 24 0.0 0.0 0.00 0.10 0.01 63 1010.0
20260506121500 45 24 0.0 0.0 0.00 0.10 0.01 62 1010.0
20260506121004 45 26 0.0 0.0 0.00 0.10 0.01 63 1010.0
20260506120505 45 30 0.0 0.0 0.00 0.10 0.01 63 1010.0
20260506120006 45 24 0.0 3.5 0.00 0.10 0.01 63 1009.8
20260506115504 44 26 0.0 3.5 0.00 0.10 0.01 63 1009.7
20260506115004 44 13 0.0 0.9 0.00 0.10 0.01 62 1009.7
20260506114505 44 9 0.0 0.9 0.00 0.10 0.01 62 1009.6
20260506113500 44 5 0.0 0.0 0.00 0.10 0.01 62 1009.6
20260506113005 44 9 0.0 0.0 0.00 0.10 0.01 62 1009.5
20260506112505 44 5 0.0 0.0 0.00 0.10 0.01 62 1009.4
20260506112003 45 14 0.0 0.0 0.00 0.10 0.01 62 1009.3
20260506111504 45 16 0.0 0.0 0.00 0.10 0.01 61 1009.3
20260506110500 45 24 0.0 5.2 0.01 0.10 0.01 65 1009.2
20260506105004 45 24 0.0 2.6 0.01 0.10 0.01 66 1009.0
20260506104505 46 24 0.0 2.6 0.01 0.10 0.01 66 1008.7
20260506103500 46 24 0.0 0.9 0.01 0.10 0.01 67 1008.5
20260506103005 46 5 0.0 0.9 0.01 0.10 0.01 66 1008.6
20260506102504 46 360 0.0 0.0 0.01 0.10 0.01 66 1008.5
20260506101959 46 355 0.0 0.0 0.01 0.10 0.01 66 1008.5
20260506100959 47 355 0.0 0.0 0.00 0.09 0.00 65 1008.4
20260506100500 47 355 0.0 0.0 0.00 0.09 0.00 65 1008.4
20260506095500 47 26 0.0 2.6 0.00 0.09 0.00 64 1008.3
20260506095000 47 17 0.0 2.6 0.00 0.09 0.00 63 1008.1
20260506093503 47 32 0.0 2.6 0.00 0.09 0.00 62 1008.2
20260506092505 47 304 0.0 0.0 0.00 0.09 0.00 60 1008.3
20260506091000 48 26 0.0 0.0 0.00 0.09 0.00 59 1008.0
20260506090504 48 25 0.0 0.0 0.00 0.09 0.00 59 1007.8
20260506090006 48 20 0.0 0.0 0.00 0.09 0.00 59 1007.8
20260506085459 48 20 0.0 0.0 0.00 0.09 0.00 59 1007.8
20260506085004 48 20 0.0 0.0 0.00 0.09 0.00 58 1007.9
20260506084504 48 22 0.0 0.0 0.00 0.09 0.00 58 1008.0
20260506084000 48 22 0.0 0.0 0.00 0.09 0.00 58 1007.8
20260506083503 48 22 0.0 0.0 0.00 0.09 0.00 57 1007.7
20260506082504 48 22 0.0 0.0 0.00 0.09 0.00 58 1007.6
20260506082004 48 22 0.0 0.0 0.00 0.09 0.00 57 1007.6
20260506081000 48 24 0.0 0.9 0.00 0.09 0.00 56 1007.9
20260506080503 48 24 0.0 0.0 0.00 0.09 0.00 56 1007.8
20260506073005 49 225 0.0 0.0 0.00 0.09 0.00 55 1007.7
20260506072505 49 225 0.0 0.0 0.00 0.09 0.00 55 1007.6
20260506071959 49 225 0.0 0.0 0.00 0.09 0.00 55 1007.6
20260506071500 49 225 0.0 0.0 0.00 0.09 0.00 55 1007.6
20260506071000 49 225 0.0 0.0 0.00 0.09 0.00 55 1007.9
20260506062459 49 225 0.0 0.0 0.00 0.09 0.00 56 1007.8
20260506061958 49 225 0.0 0.0 0.00 0.09 0.00 55 1008.0
20260506060959 49 225 0.0 0.0 0.00 0.09 0.00 56 1007.9
20260506060459 49 225 0.0 0.0 0.00 0.09 0.00 55 1007.9
20260506050958 50 226 0.0 0.0 0.00 0.09 0.00 54 1007.9
20260506044958 50 229 0.0 0.0 0.00 0.09 0.00 53 1007.7
20260506044459 50 228 0.0 0.0 0.00 0.09 0.00 53 1007.7
20260506043958 50 228 0.0 0.0 0.00 0.09 0.00 54 1007.9
20260506043459 50 228 0.0 0.0 0.00 0.09 0.00 53 1007.8
20260506043006 50 228 0.0 0.0 0.00 0.09 0.00 54 1007.7
20260506042005 50 228 0.0 0.0 0.00 0.09 0.00 53 1007.7
20260506041506 50 228 0.0 0.0 0.00 0.09 0.00 52 1007.4
20260506041005 50 228 0.0 0.0 0.00 0.09 0.00 52 1007.6
20260506040505 50 228 0.0 0.0 0.00 0.09 0.00 51 1007.5
20260506040008 50 228 0.0 0.0 0.00 0.09 0.00 51 1007.6
20260506035504 51 228 0.0 0.0 0.00 0.09 0.09 51 1007.7
20260506035005 51 228 0.0 0.0 0.00 0.09 0.09 51 1007.7
20260506034505 51 228 0.0 0.0 0.00 0.09 0.09 50 1007.7
20260506034005 51 228 0.0 0.0 0.00 0.09 0.09 50 1007.8
20260506033504 51 227 0.0 0.0 0.00 0.09 0.09 50 1007.8
20260506032506 51 227 0.0 0.0 0.00 0.09 0.09 49 1007.9
20260506032006 51 227 0.0 0.0 0.00 0.09 0.09 50 1007.9
20260506031505 51 246 0.0 0.0 0.00 0.09 0.09 49 1007.8
20260506031005 51 246 0.0 0.0 0.00 0.09 0.09 48 1007.8
20260506030504 51 246 0.0 0.0 0.00 0.09 0.09 48 1007.7
20260506030005 51 246 0.0 0.0 0.00 0.09 0.09 47 1007.8
20260506025505 51 246 0.0 0.0 0.00 0.09 0.09 47 1007.9
20260506025005 51 246 0.0 0.0 0.00 0.09 0.09 47 1007.9
20260506024505 51 271 0.0 0.0 0.00 0.09 0.09 47 1007.9
20260506024004 51 271 0.0 0.0 0.00 0.09 0.09 46 1007.8
20260506023005 52 223 0.0 0.0 0.00 0.09 0.09 46 1007.7
20260506022505 52 257 0.0 0.0 0.00 0.09 0.09 47 1007.8
20260506021505 52 226 0.0 0.9 0.00 0.09 0.09 47 1007.8
20260506021005 52 227 0.0 0.9 0.00 0.09 0.09 47 1007.8
20260506020504 52 220 0.0 0.0 0.00 0.09 0.09 46 1007.7
20260506020005 52 220 0.0 0.0 0.00 0.09 0.09 46 1007.6
20260506015505 52 220 0.0 0.0 0.00 0.09 0.09 46 1007.6
20260506014506 52 245 0.0 0.0 0.00 0.09 0.09 46 1007.5
20260506013505 52 210 0.0 0.0 0.00 0.09 0.09 45 1007.2
20260506013006 52 221 0.0 0.0 0.00 0.09 0.09 46 1007.3
20260506012505 52 221 0.0 0.0 0.00 0.09 0.09 46 1007.3
20260506012005 52 236 0.0 0.0 0.00 0.09 0.09 46 1007.2
20260506011505 52 254 0.0 0.0 0.00 0.09 0.09 47 1007.2
20260506011005 52 250 0.0 2.6 0.00 0.09 0.09 47 1007.3
20260506010505 52 222 0.0 2.6 0.00 0.09 0.09 48 1007.3
20260506005505 53 223 0.0 0.0 0.00 0.09 0.09 50 1007.2
20260506005006 53 221 0.0 0.0 0.00 0.09 0.09 50 1007.3
20260506004505 53 220 0.0 0.0 0.00 0.09 0.09 50 1007.3
20260506004005 53 200 0.0 0.0 0.00 0.09 0.09 51 1007.2
20260506003504 53 196 0.0 0.0 0.00 0.09 0.09 51 1007.2
20260506003005 53 233 0.0 0.0 0.00 0.09 0.09 50 1007.2
20260506002506 53 233 0.0 0.9 0.00 0.09 0.09 50 1007.0
20260506002005 53 232 0.0 0.9 0.00 0.09 0.09 49 1007.1
20260506001505 53 233 0.0 0.0 0.00 0.09 0.09 50 1007.0
20260506001004 53 231 0.0 0.9 0.00 0.09 0.09 50 1007.0
20260506000504 54 234 0.0 0.9 0.00 0.09 0.09 50 1006.9
20260505235004 54 217 0.0 1.7 0.00 0.09 0.09 51 1006.6
20260505234505 54 252 0.0 0.0 0.00 0.09 0.09 52 1006.6
20260505234005 54 242 0.0 0.0 0.00 0.09 0.09 52 1006.5
20260505233504 54 252 0.0 0.0 0.00 0.09 0.09 51 1006.5
20260505233005 54 252 0.0 0.0 0.00 0.09 0.09 51 1006.4
20260505232505 54 244 0.0 1.7 0.00 0.09 0.09 51 1006.4
20260505232004 54 233 0.0 4.3 0.00 0.09 0.09 52 1006.4
20260505231505 54 240 0.0 4.3 0.00 0.09 0.09 52 1006.3
20260505231004 54 291 0.0 4.3 0.00 0.09 0.09 53 1006.4
20260505230504 55 246 0.0 4.3 0.00 0.09 0.09 54 1006.4
20260505225505 55 240 0.0 4.3 0.00 0.09 0.09 58 1006.4
20260505225005 55 237 0.0 2.6 0.00 0.09 0.09 60 1006.4
20260505224505 55 221 0.0 0.0 0.00 0.09 0.09 61 1006.5
20260505224005 55 225 0.0 0.0 0.00 0.09 0.09 63 1006.6
20260505223504 55 219 0.9 3.5 0.00 0.09 0.09 63 1006.6
20260505223005 55 275 0.9 4.3 0.00 0.09 0.09 64 1006.6
20260505222505 55 267 0.0 0.0 0.00 0.09 0.09 64 1006.6
20260505222005 55 221 0.0 0.0 0.00 0.09 0.09 64 1006.5
20260505221506 55 246 0.9 6.1 0.00 0.09 0.09 64 1006.4
20260505221005 55 238 0.9 7.0 0.00 0.09 0.09 65 1006.5
20260505220504 55 214 0.9 7.0 0.00 0.09 0.09 65 1006.6
20260505220006 55 203 0.0 5.2 0.00 0.09 0.09 65 1006.7
20260505215505 55 227 0.9 5.2 0.00 0.09 0.09 66 1006.7
20260505215005 55 237 0.9 5.2 0.00 0.09 0.09 66 1006.7
20260505214506 55 230 0.0 6.1 0.00 0.09 0.09 66 1006.7
20260505213005 55 217 0.0 0.9 0.00 0.09 0.09 68 1006.6
20260505212504 55 226 0.0 6.1 0.00 0.09 0.09 69 1006.5
20260505212005 54 236 0.9 6.1 0.00 0.09 0.09 67 1006.5
20260505211004 54 233 0.0 6.1 0.00 0.09 0.09 69 1006.5
20260505210504 54 235 0.0 0.0 0.00 0.09 0.09 69 1006.6
20260505205504 54 229 0.9 7.8 0.00 0.09 0.09 69 1006.6
20260505205005 54 229 0.0 4.3 0.00 0.09 0.09 70 1006.7
20260505204505 54 226 1.7 8.7 0.00 0.09 0.09 71 1006.7
20260505203006 53 213 1.7 8.7 0.00 0.09 0.09 72 1006.8
20260505202505 53 209 3.5 8.7 0.00 0.09 0.09 71 1006.8
20260505202004 53 218 3.5 8.7 0.00 0.09 0.09 71 1006.8
20260505201505 53 224 3.5 8.7 0.00 0.09 0.09 71 1006.9
20260505201004 53 219 1.7 8.7 0.00 0.09 0.09 71 1006.8
20260505200504 53 245 1.7 7.0 0.00 0.09 0.09 72 1006.8
20260505200006 53 205 0.9 6.1 0.00 0.09 0.09 73 1006.8
20260505195504 52 233 0.9 5.2 0.00 0.09 0.09 73 1006.8
20260505195005 52 208 0.9 6.1 0.00 0.09 0.09 73 1006.9
20260505194505 52 242 0.9 4.3 0.00 0.09 0.09 73 1006.8
20260505194004 52 236 0.9 7.0 0.00 0.09 0.09 72 1006.9
20260505193504 52 215 1.7 7.0 0.00 0.09 0.09 73 1007.1
20260505193005 52 209 2.6 8.7 0.00 0.09 0.09 74 1007.0
20260505192505 52 208 1.7 8.7 0.00 0.09 0.09 73 1007.0
20260505192003 52 232 1.7 7.8 0.00 0.09 0.09 73 1007.0
20260505191505 52 222 1.7 7.8 0.00 0.09 0.09 75 1007.1
20260505191005 52 235 0.9 7.8 0.00 0.09 0.09 74 1007.2
20260505190505 52 258 0.9 7.8 0.00 0.09 0.09 74 1007.2
20260505190006 52 229 0.0 7.8 0.00 0.09 0.09 76 1007.2
20260505185504 51 250 0.0 7.8 0.00 0.09 0.09 76 1007.1
20260505185004 51 244 0.0 5.2 0.00 0.09 0.09 76 1007.1
20260505184505 51 238 0.9 10.4 0.00 0.09 0.09 76 1007.0
20260505184004 51 256 0.9 10.4 0.00 0.09 0.09 77 1006.9
20260505183505 51 235 0.9 7.8 0.00 0.09 0.09 77 1006.8
20260505183005 51 212 0.9 7.0 0.00 0.09 0.09 78 1006.7
20260505182505 51 238 0.9 10.4 0.00 0.09 0.09 78 1006.7
20260505182005 51 221 0.0 10.4 0.00 0.09 0.09 81 1006.6
20260505181505 51 236 0.0 7.0 0.00 0.09 0.09 81 1006.4
20260505181005 51 210 0.0 7.0 0.01 0.09 0.09 80 1006.5
20260505180006 50 229 0.9 7.0 0.01 0.09 0.09 81 1006.4
20260505175005 50 240 0.9 4.3 0.01 0.09 0.09 83 1006.4
20260505174505 50 240 0.9 5.2 0.01 0.09 0.09 82 1006.4
20260505174005 51 215 0.0 0.0 0.02 0.09 0.09 82 1006.2
20260505173006 51 233 0.0 0.0 0.03 0.09 0.09 81 1006.1
20260505172505 51 213 0.0 0.9 0.04 0.09 0.09 80 1006.2
20260505171506 51 241 0.0 7.0 0.04 0.09 0.09 81 1006.5
20260505170006 52 223 0.0 0.0 0.03 0.08 0.08 80 1006.3
20260505165004 53 209 0.0 0.0 0.03 0.08 0.08 77 1006.8
20260505164505 54 234 0.0 3.5 0.03 0.08 0.08 76 1006.8
20260505164005 54 294 0.0 3.5 0.02 0.07 0.07 73 1006.9
20260505163006 56 294 0.0 3.5 0.01 0.06 0.06 69 1006.5
20260505162500 57 306 0.0 2.6 0.00 0.05 0.05 67 1006.4
20260505162004 57 300 0.0 1.7 0.00 0.05 0.05 66 1006.4
20260505161504 58 324 0.0 3.5 0.00 0.05 0.05 64 1006.3
20260505161004 58 249 0.0 3.5 0.00 0.05 0.05 61 1006.2
20260505160504 58 259 0.0 1.7 0.00 0.05 0.05 59 1006.0
20260505153005 59 238 0.0 4.3 0.00 0.05 0.05 52 1005.5
20260505152000 59 239 0.9 4.3 0.00 0.05 0.05 55 1005.3
20260505151504 59 280 0.0 3.5 0.00 0.05 0.05 53 1005.2
20260505151004 59 248 0.0 1.7 0.00 0.05 0.05 55 1005.0
20260505150500 60 242 0.0 1.7 0.00 0.05 0.05 56 1004.8
20260505140504 61 263 0.0 1.7 0.05 0.05 0.05 55 1004.5
20260505125001 59 243 1.7 5.2 0.00 0.00 0.00 75 1002.7
20260505124505 58 273 0.9 6.1 0.00 0.00 0.00 76 1002.7
20260505123504 58 237 2.6 7.0 0.00 0.00 0.00 78 1002.8
20260505123004 58 225 1.7 7.0 0.00 0.00 0.00 77 1002.8
20260505122500 57 239 2.6 8.7 0.00 0.00 0.00 78 1002.9